DW8228 Weather Reports


Display with metric or nautical units.
time (UTC)temp
F
wind
direction
speed
MPH
gust
MPH
rain 1hr
in
rain 24hr
in
rain mn
in
humidity
%
barometer
mb
20260503224559 39 288 2.0 7.0 0.00 0.00 0.00 68 1007.0
20260503223052 39 288 5.0 8.0 0.00 0.00 0.00 67 1007.0
20260503221550 40 288 4.0 5.0 0.00 0.00 0.00 66 1007.0
20260503220049 40 288 3.0 5.0 0.00 0.00 0.00 66 1007.2
20260503214549 40 287 1.0 3.0 0.00 0.00 0.00 66 1007.3
20260503213046 40 287 4.0 10.0 0.00 0.00 0.00 65 1007.2
20260503211603 40 298 7.0 10.0 0.00 0.00 0.00 65 1007.3
20260503210039 40 290 6.0 10.0 0.00 0.00 0.00 65 1007.4
20260503204539 41 283 7.0 12.0 0.00 0.00 0.00 64 1007.3
20260503203041 41 291 7.0 11.0 0.00 0.00 0.00 64 1007.4
20260503201532 41 274 6.0 13.0 0.00 0.00 0.00 63 1007.5
20260503200035 42 271 7.0 12.0 0.00 0.00 0.00 62 1007.5
20260503194528 42 252 6.0 12.0 0.00 0.00 0.00 62 1007.5
20260503193032 42 269 4.0 8.0 0.00 0.00 0.00 60 1007.3
20260503191526 43 297 5.0 8.0 0.00 0.00 0.00 60 1007.3
20260503190025 43 253 6.0 11.0 0.00 0.00 0.00 60 1007.4
20260503184533 43 275 8.0 11.0 0.00 0.00 0.00 60 1007.4
20260503183023 44 294 7.0 12.0 0.00 0.00 0.00 59 1007.3
20260503181523 44 286 7.0 11.0 0.00 0.00 0.00 58 1007.4
20260503180041 45 284 8.0 13.0 0.00 0.00 0.00 57 1007.3
20260503174526 45 286 5.0 11.0 0.00 0.00 0.00 57 1007.2
20260503173025 46 276 7.0 13.0 0.00 0.00 0.00 56 1007.2
20260503171518 46 267 8.0 14.0 0.00 0.00 0.00 56 1007.2
20260503160114 46 255 7.0 12.0 0.00 0.00 0.00 61 1007.6
20260503130111 51 288 9.0 14.0 0.00 0.00 0.00 55 1007.8
20260503081538 51 258 5.0 8.0 0.00 0.00 0.00 64 1007.8
20260503071518 47 241 4.0 12.0 0.00 0.00 0.00 66 1007.1
20260503054514 44 294 4.0 5.0 0.00 0.00 0.00 68 1006.3
20260503053006 45 305 5.0 9.0 0.00 0.00 0.00 68 1006.1
20260503051508 45 298 4.0 8.0 0.00 0.00 0.00 68 1006.0
20260503050005 45 299 4.0 10.0 0.00 0.00 0.00 68 1005.9
20260503044502 45 300 6.0 10.0 0.00 0.00 0.00 66 1005.8
20260503043100 45 9 4.0 11.0 0.00 0.00 0.00 65 1005.5
20260503041600 45 265 8.0 14.0 0.00 0.00 0.00 65 1005.4
20260503034601 44 290 5.0 11.0 0.00 0.00 0.00 65 1005.2
20260503033055 44 278 9.0 12.0 0.00 0.00 0.00 65 1005.2
20260503031552 43 281 9.0 13.0 0.00 0.00 0.00 66 1005.1
20260503030123 43 261 7.0 11.0 0.00 0.00 0.00 67 1004.9
20260503024551 43 266 7.0 11.0 0.00 0.00 0.00 66 1004.8
20260503023049 43 242 6.0 12.0 0.00 0.00 0.00 67 1004.7
20260503021556 42 248 8.0 11.0 0.00 0.00 0.00 67 1004.6
20260503020049 42 250 6.0 10.0 0.00 0.00 0.00 68 1004.5
20260503014602 41 241 4.0 7.0 0.00 0.00 0.00 68 1004.7
20260503013051 41 218 5.0 7.0 0.00 0.00 0.00 68 1004.6
20260503011554 42 258 2.0 4.0 0.00 0.00 0.00 68 1004.3
20260503010058 42 258 4.0 7.0 0.00 0.00 0.00 68 1004.3
20260503004545 42 248 3.0 5.0 0.00 0.00 0.00 68 1004.3
20260503003054 41 134 2.0 5.0 0.00 0.00 0.00 69 1004.2
20260503001542 42 247 2.0 8.0 0.00 0.00 0.00 69 1004.2
20260503000040 42 230 3.0 6.0 0.00 0.00 0.00 69 1004.0
20260502234537 42 194 5.0 7.0 0.00 0.00 0.00 69 1004.3
20260502233035 43 209 5.0 9.0 0.00 0.00 0.00 69 1004.2
20260502231534 43 194 5.0 9.0 0.00 0.00 0.00 69 1004.2
20260502230031 43 202 10.0 13.0 0.00 0.00 0.00 69 1004.5